TimeEST,TemperatureF,Dew PointF,Humidity,Sea Level PressureIn,VisibilityMPH,Wind Direction,Wind SpeedMPH,Gust SpeedMPH,PrecipitationIn,Events,Conditions,WindDirDegrees,DateUTC
12:15 AM,51.8,50.0,94,30.30,10.0,NE,3.5,-,N/A,,Clear,50,2011-11-08 05:15:00
12:35 AM,51.8,50.0,94,30.30,10.0,NE,3.5,-,N/A,,Clear,50,2011-11-08 05:35:00
12:55 AM,50.0,50.0,100,30.30,10.0,NNE,3.5,-,N/A,,Clear,30,2011-11-08 05:55:00
1:15 AM,51.8,50.0,94,30.30,10.0,NE,3.5,-,N/A,,Clear,50,2011-11-08 06:15:00
1:35 AM,51.8,50.0,94,30.30,10.0,NE,3.5,-,N/A,,Mostly Cloudy,50,2011-11-08 06:35:00
1:55 AM,51.8,50.0,94,30.29,10.0,NE,4.6,-,N/A,,Mostly Cloudy,50,2011-11-08 06:55:00
2:15 AM,53.6,50.0,88,30.28,10.0,ENE,3.5,-,N/A,,Mostly Cloudy,70,2011-11-08 07:15:00
2:35 AM,53.6,50.0,88,30.28,10.0,ENE,4.6,-,N/A,,Mostly Cloudy,60,2011-11-08 07:35:00
2:55 AM,51.8,50.0,94,30.27,10.0,ENE,4.6,-,N/A,,Overcast,60,2011-11-08 07:55:00
3:15 AM,51.8,50.0,94,30.27,10.0,NE,5.8,-,N/A,,Mostly Cloudy,50,2011-11-08 08:15:00
3:55 AM,53.6,50.0,88,30.27,10.0,NE,4.6,-,N/A,,Mostly Cloudy,50,2011-11-08 08:55:00
4:15 AM,53.6,50.0,88,30.27,10.0,NE,4.6,-,N/A,,Overcast,50,2011-11-08 09:15:00
4:35 AM,51.8,50.0,94,30.28,10.0,Calm,Calm,-,N/A,,Overcast,0,2011-11-08 09:35:00
4:55 AM,53.6,50.0,88,30.28,10.0,Calm,Calm,-,N/A,,Overcast,0,2011-11-08 09:55:00
5:15 AM,51.8,50.0,94,30.28,10.0,NE,4.6,-,N/A,,Mostly Cloudy,50,2011-11-08 10:15:00
5:35 AM,50.0,48.2,94,30.28,10.0,ENE,5.8,-,N/A,,Scattered Clouds,60,2011-11-08 10:35:00
5:55 AM,50.0,50.0,100,30.28,10.0,NE,4.6,-,N/A,,Clear,50,2011-11-08 10:55:00
6:15 AM,51.8,51.8,100,30.28,10.0,NE,3.5,-,N/A,,Clear,50,2011-11-08 11:15:00
6:35 AM,50.0,50.0,100,30.28,10.0,NE,3.5,-,N/A,,Clear,50,2011-11-08 11:35:00
7:15 AM,50.0,50.0,100,30.29,10.0,NE,3.5,-,N/A,,Clear,50,2011-11-08 12:15:00
7:35 AM,51.8,-9999,N/A,30.29,10.0,ENE,3.5,-,N/A,,Clear,60,2011-11-08 12:35:00
7:55 AM,53.6,53.6,100,30.29,10.0,NE,5.8,-,N/A,,Clear,50,2011-11-08 12:55:00
8:15 AM,55.4,53.6,94,30.30,10.0,NE,5.8,-,N/A,,Clear,40,2011-11-08 13:15:00
8:35 AM,59.0,53.6,82,30.30,10.0,NNE,3.5,-,N/A,,Clear,30,2011-11-08 13:35:00
8:55 AM,59.0,53.6,82,30.30,10.0,NE,3.5,-,N/A,,Clear,40,2011-11-08 13:55:00
9:15 AM,60.8,55.4,82,30.31,10.0,Calm,Calm,-,N/A,,Clear,0,2011-11-08 14:15:00
9:35 AM,62.6,55.4,77,30.30,10.0,NE,4.6,-,N/A,,Clear,40,2011-11-08 14:35:00
9:55 AM,64.4,55.4,73,30.30,10.0,NE,8.1,-,N/A,,Clear,50,2011-11-08 14:55:00
10:15 AM,66.2,55.4,68,30.30,10.0,NE,5.8,-,N/A,,Clear,50,2011-11-08 15:15:00
10:35 AM,68.0,55.4,64,30.30,10.0,NNE,6.9,-,N/A,,Clear,30,2011-11-08 15:35:00
10:55 AM,68.0,55.4,64,30.29,10.0,ENE,5.8,-,N/A,,Clear,70,2011-11-08 15:55:00
11:15 AM,69.8,55.4,60,30.28,10.0,ENE,6.9,-,N/A,,Clear,60,2011-11-08 16:15:00
11:35 AM,69.8,53.6,56,30.28,10.0,NE,6.9,-,N/A,,Clear,40,2011-11-08 16:35:00
11:55 AM,69.8,53.6,56,30.27,10.0,Calm,Calm,-,N/A,,Clear,0,2011-11-08 16:55:00
12:15 PM,69.8,53.6,56,30.26,10.0,East,5.8,-,N/A,,Clear,100,2011-11-08 17:15:00
12:35 PM,71.6,53.6,53,30.25,10.0,ESE,4.6,-,N/A,,Clear,110,2011-11-08 17:35:00
12:55 PM,71.6,53.6,53,30.24,10.0,Calm,Calm,-,N/A,,Clear,0,2011-11-08 17:55:00
1:15 PM,71.6,53.6,53,30.23,10.0,Calm,Calm,-,N/A,,Clear,0,2011-11-08 18:15:00
1:35 PM,71.6,53.6,53,30.22,10.0,East,4.6,-,N/A,,Clear,100,2011-11-08 18:35:00
1:55 PM,71.6,53.6,53,30.22,10.0,Calm,Calm,-,N/A,,Clear,0,2011-11-08 18:55:00
2:35 PM,71.6,53.6,53,30.21,10.0,ESE,3.5,-,N/A,,Clear,120,2011-11-08 19:35:00
2:55 PM,71.6,53.6,53,30.20,10.0,Calm,Calm,-,N/A,,Clear,0,2011-11-08 19:55:00
3:15 PM,71.6,53.6,53,30.20,10.0,SE,3.5,-,N/A,,Clear,140,2011-11-08 20:15:00
3:35 PM,71.6,53.6,53,30.20,10.0,Calm,Calm,-,N/A,,Clear,0,2011-11-08 20:35:00
3:55 PM,69.8,51.8,53,30.20,10.0,Calm,Calm,-,N/A,,Clear,0,2011-11-08 20:55:00
4:15 PM,71.6,51.8,50,30.20,10.0,Calm,Calm,-,N/A,,Clear,0,2011-11-08 21:15:00
4:35 PM,71.6,53.6,53,30.19,10.0,Calm,Calm,-,N/A,,Clear,0,2011-11-08 21:35:00
4:55 PM,69.8,53.6,56,30.19,10.0,SE,3.5,-,N/A,,Clear,140,2011-11-08 21:55:00
5:15 PM,68.0,53.6,60,30.19,10.0,Calm,Calm,-,N/A,,Clear,0,2011-11-08 22:15:00
5:35 PM,60.8,51.8,72,30.20,10.0,Calm,Calm,-,N/A,,Clear,0,2011-11-08 22:35:00
5:55 PM,62.6,53.6,72,30.20,10.0,Calm,Calm,-,N/A,,Clear,0,2011-11-08 22:55:00
6:15 PM,59.0,53.6,82,30.21,10.0,Calm,Calm,-,N/A,,Clear,0,2011-11-08 23:15:00
6:35 PM,59.0,53.6,82,30.21,10.0,Calm,Calm,-,N/A,,Clear,0,2011-11-08 23:35:00
6:55 PM,55.4,53.6,94,30.21,10.0,Calm,Calm,-,N/A,,Clear,0,2011-11-08 23:55:00
7:15 PM,55.4,53.6,94,30.21,10.0,NE,3.5,-,N/A,,Clear,50,2011-11-09 00:15:00
7:35 PM,59.0,53.6,82,30.21,10.0,Calm,Calm,-,N/A,,Clear,0,2011-11-09 00:35:00
7:55 PM,55.4,51.8,88,30.22,10.0,Calm,Calm,-,N/A,,Clear,0,2011-11-09 00:55:00
8:15 PM,57.2,53.6,88,30.22,10.0,Calm,Calm,-,N/A,,Clear,0,2011-11-09 01:15:00
8:35 PM,53.6,51.8,94,30.21,10.0,Calm,Calm,-,N/A,,Clear,0,2011-11-09 01:35:00
8:55 PM,53.6,51.8,94,30.21,10.0,ENE,3.5,-,N/A,,Clear,60,2011-11-09 01:55:00
9:15 PM,51.8,51.8,100,30.21,10.0,Calm,Calm,-,N/A,,Clear,0,2011-11-09 02:15:00
9:35 PM,51.8,51.8,100,30.21,10.0,Calm,Calm,-,N/A,,Clear,0,2011-11-09 02:35:00
10:15 PM,51.8,-9999,N/A,30.21,10.0,Calm,Calm,-,N/A,,Clear,0,2011-11-09 03:15:00
10:35 PM,50.0,-9999,N/A,30.20,10.0,Calm,Calm,-,N/A,,Clear,0,2011-11-09 03:35:00
10:55 PM,50.0,-9999,N/A,30.19,10.0,NE,4.6,-,N/A,,Clear,50,2011-11-09 03:55:00
11:15 PM,51.8,-9999,N/A,30.19,10.0,ENE,3.5,-,N/A,,Clear,70,2011-11-09 04:15:00
11:35 PM,51.8,-9999,N/A,30.18,10.0,Calm,Calm,-,N/A,,Clear,0,2011-11-09 04:35:00
11:55 PM,50.0,-9999,N/A,30.18,10.0,ENE,3.5,-,N/A,,Clear,60,2011-11-09 04:55:00